Home > Weather > San Marino > Past weeks

Flag for San Marino Past Weather in San Marino, San Marino — Yesterday and Last 2 Weeks

Now
63 °F

Clear.


Feels Like: 63 °F
Forecast: 60 / 69 °F
Wind: No wind

Location: Rimini Airport

Current Time: May 28, 2016 at 4:18:28 AM

Latest Report: May 28, 2016 at 2:45 AM


Visibility: 10 mi

Pressure: 29.95 "Hg (27.69 "Hg at 666m altitude)

Humidity: 100%

Dew Point: 63 °F

Location of San MarinoLocation

Past Weather in San Marino — Graph

°F

San Marino Temperature Yesterday

Maximum temperature yesterday: 72 °F (at 10:45 AM)
Minimum temperature yesterday: 57 °F (at 5:45 AM)
Average temperature yesterday: 67 °F

High & Low Weather Summary for the Past Weeks

 TemperatureHumidityPressure
High75 °F (May 23, 12:45 PM)100% (May 14, 2:45 AM)30.12 "Hg (May 14, 2:45 AM)
Low46 °F (May 18, 4:45 AM)44% (May 21, 2:15 PM)29.47 "Hg (May 13, 7:45 AM)
Average63 °F78%29.89 "Hg
* Reported May 13 2:15 AM — May 28 2:45 AM, San Marino, Weather by CustomWeather, © 2016

Note: Actual official high and low records may vary slightly from our data, if they occured in-between our weather recording intervals... More about our weather records

Advertising

San Marino Weather History for the Previous 24 Hours

Scroll right to see more
 ConditionsComfort  
Time TempWeatherWind HumidityBarometerVisibility
2:45 AM
Sat, May 28
63 °FClear.No wind100%29.95 "Hg10 mi
2:15 AM63 °FClear.No wind100%29.95 "Hg10 mi
1:15 AM64 °FClear.No wind100%29.95 "Hg10 mi
12:45 AM64 °FClear.No wind100%29.95 "Hg10 mi
12:15 AM64 °FClear.No wind100%29.95 "Hg10 mi
11:45 PM
Fri, May 27
66 °FClear.1 mph100%29.95 "Hg10 mi
11:15 PM66 °FClear.2 mph100%29.95 "Hg10 mi
10:45 PM66 °FClear.2 mph100%29.95 "Hg10 mi
10:15 PM68 °FClear.No wind100%29.95 "Hg10 mi
9:45 PM68 °FClear.No wind100%29.95 "Hg10 mi
9:15 PM68 °FSunny.No wind100%29.95 "Hg10 mi
8:45 PM70 °FSunny.5 mph88%29.95 "Hg10 mi
8:15 PM70 °FSunny.5 mph88%29.95 "Hg10 mi
7:45 PM68 °FSunny.6 mph94%29.95 "Hg10 mi
7:15 PM70 °FPassing clouds.9 mph83%29.95 "HgN/A
6:45 PM70 °FSunny.10 mph88%29.98 "Hg10 mi
6:15 PM72 °FSunny.10 mph83%29.98 "Hg10 mi
5:45 PM72 °FSunny.12 mph78%29.98 "Hg10 mi
5:15 PM72 °FSunny.14 mph83%29.98 "Hg10 mi
4:45 PM72 °FSunny.13 mph88%29.98 "Hg10 mi
4:15 PM70 °FSunny.14 mph94%29.98 "Hg10 mi
3:45 PM72 °FSunny.13 mph88%29.98 "Hg10 mi
3:15 PM70 °FSunny.10 mph94%29.98 "Hg10 mi
2:45 PM72 °FSunny.10 mph83%29.98 "Hg10 mi
2:15 PM72 °FSunny.13 mph88%29.98 "Hg10 mi
1:45 PM70 °FSunny.12 mph88%29.98 "Hg10 mi
1:15 PM70 °FSunny.9 mph88%30.01 "Hg10 mi
12:45 PM70 °FSunny.9 mph88%30.01 "Hg10 mi
12:15 PM72 °FSunny.7 mph83%30.04 "Hg10 mi
11:45 AM72 °FSunny.6 mph83%30.04 "Hg10 mi
11:15 AM72 °FSunny.5 mph83%30.04 "Hg10 mi
10:45 AM72 °FSunny.5 mph83%30.04 "Hg10 mi
10:15 AM70 °FSunny.5 mph83%30.01 "Hg10 mi
9:45 AM70 °FSunny.5 mph83%30.01 "Hg10 mi
9:15 AM70 °FSunny.3 mph78%30.01 "Hg10 mi
8:45 AM68 °FSunny.1 mph73%30.01 "Hg10 mi
8:15 AM66 °FSunny.No wind78%30.04 "Hg10 mi
7:45 AM64 °FSunny.No wind88%30.01 "Hg10 mi
7:15 AM61 °FSunny.1 mph100%30.01 "Hg10 mi
6:45 AM59 °FSunny.2 mph100%30.01 "Hg10 mi
6:15 AM57 °FClear.No wind100%30.01 "Hg10 mi
5:45 AM57 °FClear.No wind100%30.01 "Hg10 mi
5:15 AM59 °FClear.No wind100%29.98 "Hg10 mi
4:45 AM59 °FClear.No wind100%29.98 "Hg10 mi
4:15 AM59 °FClear.2 mph100%29.98 "Hg10 mi
Weather by CustomWeather, © 2016

See weather overviewHow to use our weather pages